Tracking 33446 objects as of 10-Mar-2026
HD Live streaming from Space Station
objects crossing your sky now

STARLINK-35493

Track STARLINK-35493 now!
10-day predictions
STARLINK-35493 is classified as:


NORAD ID: 65928
Int'l Code: 2025-225U
Perigee: 481.6 km
Apogee: 483.2 km
Inclination: 53.2 °
Period: 94.1 minutes
Semi major axis: 6853 km
RCS: Unknown
Launch date: October 8, 2025
Source: United States (US)
Launch site: AIR FORCE WESTERN TEST RANGE (AFWTR)
Your satellite tracking list
Your tracking list is empty




NASA's NSSDC Master Catalog

Two Line Element Set (TLE):
1 65928U 25225U   26068.54194601  .00041033  00000-0  13906-2 0  9990
2 65928  53.1589 166.4946 0001196  80.2123 279.9013 15.30183801 24380
Source of the keplerian elements: AFSPC